www.pogodaiklimat.ru

Погода и климат >> Архив погоды >> Габон >> Порт-Жантиль


ПОГОДА в Порт-Жантиле

  • Прогноз погоды в Порт-Жантиле
  • Монитор погоды в Порт-Жантиле

АРХИВ ПОГОДЫ в Порт-Жантиле

Время (UTC), дата Ветер
(напр.,м/с)
 
Видим.   Явления Облачность Т
(С)
Тd
(С)
f
(%)
Тe
(С)
Тes
(С)
Комфортность P
(гПа)
Po
(гПа)
Тmin
(С)
Tmax
(С)
R
(мм)
R24
(мм)
S
(см)
21 15.08 Ю 3 10 км 10/10 300 м
[Sc]
+24.6 +22.3 87 +32 +32 очень
душно
1015.4 1014.5
00 16.08 Ю 5 10 км 4/4 240 м
[Sc]
+24.6 +22.3 87 +32 +32 очень
душно
1014.4 1013.5
03 16.08 Ю 4 10 км 10/10 240 м
[Sc]
+24.6 +22.3 87 +32 +32 очень
душно
1013.8 1012.9
06 16.08 Ю 4 10 км 8/8 240 м
[Cu Sc Ac trans]
+24.4 +22.1 87 +32 +32 очень
душно
1015.5 1014.6 +24.2
09 16.08 Ю 5 10 км 10/10 240 м
[Cu Sc]
+25.4 +22.1 82 +33 +33 очень
душно
1016.8 1015.9
15 16.08 Ю 5 10 км 4/4 400 м
[Cu med, cong]
+27.4 +21.3 69 +35 +37 очень
душно
1012.5 1011.6
21 16.08 Ю 4 10 км 5/4 240 м
[Sc Ac trans]
+24.8 +22.1 85 +32 +32 очень
душно
1015.2 1014.3
00 17.08 Ю 5 10 км 10/10 240 м
[Sc]
+24.8 +21.9 84 +32 +32 очень
душно
1014.8 1013.9
03 17.08 Ю 4 10 км 10/10 240 м
[Sc]
+24.7 +21.8 84 +32 +32 очень
душно
1014.4 1013.5
06 17.08 Ю 4 6000 м дым 6/6 240 м
[Sc]
+24.3 +21.8 86 +31 +31 очень
душно
1014.6 1013.7 +24.3
09 17.08 Ю 6 8000 м дым 5/5 300 м
[Cu med, cong]
+26.4 +22.2 78 +34 +37 очень
душно
1015.2 1014.3
12 17.08 Ю 5 10 км 5/5 330 м
[Cu med, cong]
+27.5 +22.5 74 +36 +41 очень
душно
1014.5 1013.6
21 17.08 Ю 4 10 км 4/1 300 м
[Sc Ac trans]
+25.0 +22.1 84 +32 +32 очень
душно
1014.1 1013.2
00 18.08 Ю 4 10 км 4/4 300 м
[Sc]
+24.5 +21.9 85 +31 +31 очень
душно
1013.3 1012.4
03 18.08 ЮВ 3 10 км 10/10 240 м
[Sc]
+24.4 +22.4 89 +32 +32 очень
душно
1013.1 1012.2
06 18.08 Ю 5 10 км 5/5 240 м
[Sc]
+24.6 +22.3 87 +32 +32 очень
душно
1013.7 1012.8 +24.0
09 18.08 Ю 7 15 км 4/4 300 м
[Cu Sc]
+26.5 +22.2 77 +34 +37 очень
душно
1014.7 1013.8
12 18.08 Ю 7 15 км 6/6 300 м
[Cu Sc]
+27.6 +22.5 74 +36 +38 очень
душно
1014.0 1013.1
15 18.08 Ю 5 10 км 9/9 300 м
[Cu Sc]
+26.5 +22.2 77 +34 +35 очень
душно
1011.3 1010.4
18 18.08 Ю 4 10 км 10/10 300 м
[Sc]
+25.3 +22.1 82 +33 +33 очень
душно
1012.8 1011.9 +28.3
21 18.08 Ю 4 8000 м 4/4 240 м
[Sc]
+24.8 +22.2 85 +32 +32 очень
душно
1014.3 1013.4
00 19.08 Ю 2 10 км 5/5 300 м
[Sc]
+24.1 +22.2 89 +31 +31 очень
душно
1013.8 1012.9
03 19.08 Ю 4 10 км 4/4 300 м
[Sc]
+24.4 +22.2 88 +32 +32 очень
душно
1013.0 1012.1
06 19.08 Ю 3 10 км 4/4 240 м
[Sc Ac trans]
+24.4 +21.6 84 +31 +31 очень
душно
1013.8 1012.9 +24.0
09 19.08 Ю 5 10 км 10/10 300 м
[Cu Sc]
+25.7 +22.1 81 +33 +33 очень
душно
1015.7 1014.8
12 19.08 Ю 5 10 км 5/4 330 м
[Cu med, cong Ac trans]
+27.5 +22.5 74 +36 +42 очень
душно
1013.7 1012.8
15 19.08 Ю 5 10 км 10/10 300 м
[Sc]
+26.4 +22.2 78 +34 +34 очень
душно
1011.8 1010.9
18 19.08 Ю 5 10 км 10/10 240 м
[Sc]
+25.4 +21.8 80 +33 +33 очень
душно
1012.9 1012.0 +28.0
21 19.08 Ю 5 10 км 10/10 240 м
[Sc]
+25.2 +22.3 84 +33 +33 очень
душно
1014.7 1013.8
00 20.08 Ю 4 10 км 10/10 240 м
[Sc]
+24.8 +21.9 84 +32 +32 очень
душно
1014.8 1013.9
03 20.08 Ю 3 10 км 9/9 240 м
[Sc]
+24.3 +22.0 87 +31 +31 очень
душно
1013.7 1012.8
06 20.08 ЮВ 2 8000 м 9/9 300 м
[Sc]
+23.5 +21.9 91 +30 +30 очень
душно
1013.8 1012.9 +23.4
09 20.08 Ю 5 10 км 9/9 300 м
[Cu Sc]
+26.0 +22.3 80 +34 +35 очень
душно
1015.3 1014.4
12 20.08 Ю 6 10 км 4/4 360 м
[Cu med, cong]
+27.7 +22.4 73 +36 +41 очень
душно
1013.8 1012.9
15 20.08 Ю 5 10 км 6/4 330 м
[Cu hum Ac trans]
+26.8 +22.8 79 +36 +37 очень
душно
1012.3 1011.4
18 20.08 Ю 3 8000 м 6/6 240 м
[Sc Ac trans]
+25.5 +21.9 81 +33 +33 очень
душно
1013.9 1013.0 +28.0
21 20.08 Ю 4 10 км 6/6 300 м
[Sc]
+25.1 +22.4 85 +33 +33 очень
душно
1015.3 1014.4
00 21.08 Ю 3 10 км 6/6 240 м
[Sc]
+24.9 +22.1 84 +32 +32 очень
душно
1015.1 1014.2
03 21.08 Ю 4 10 км 3/3 240 м
[Sc]
+24.7 +22.1 85 +32 +32 очень
душно
1015.1 1014.2
06 21.08 Ю 3 10 км 9/9 240 м
[Sc]
+24.5 +23.1 92 +33 +33 очень
душно
1015.5 1014.6 +24.4
09 21.08 Ю 5 10 км 8/8 300 м
[Cu Sc]
+26.2 +22.4 80 +34 +36 очень
душно
1017.0 1016.1
15 21.08 Ю 5 10 км 10/10 300 м
[Cu Sc]
+26.3 +22.3 79 +34 +34 очень
душно
1012.7 1011.8
18 21.08 Ю 4 10 км 10/10 240 м
[Sc]
+25.3 +22.4 84 +33 +33 очень
душно
1013.2 1012.3 +27.3
21 21.08 Ю 3 10 км 6/6 240 м
[Sc]
+25.0 +22.1 84 +32 +32 очень
душно
1015.5 1014.6
00 22.08 Ю 3 10 км 4/4 240 м
[Sc]
+24.5 +23.5 94 +33 +33 очень
душно
1014.5 1013.6
03 22.08 Ю 3 10 км 8/8 240 м
[Sc]
+24.4 +23.1 92 +32 +32 очень
душно
1013.9 1013.0
06 22.08 Ю 3 10 км 9/9 300 м
[Sc]
+25.0 +22.6 87 +33 +33 очень
душно
1015.0 1014.1 +24.4
09 22.08 Ю 5 15 км 6/6 330 м
[Cu Sc]
+27.5 +22.5 74 +36 +39 очень
душно
1015.7 1014.8
12 22.08 Ю 6 15 км 3/3 360 м
[Cu med, cong]
+28.3 +22.2 70 +37 +42 очень
душно
1013.9 1013.0
15 22.08 Ю 7 10 км 4/4 360 м
[Cu Sc]
+27.5 +22.6 75 +36 +38 очень
душно
1012.1 1011.2
18 22.08 Ю 5 10 км 10/10 240 м
[Sc]
+26.0 +22.7 82 +34 +34 очень
душно
1013.4 1012.5 +28.6

 

Местоположение метеостанции Порт-Жантиль (Габон): широта -0.70 долгота 8.75 высота над уровнем моря 4 м.

В архиве по умолчанию представлена погода в Порт-Жантиле за последнюю неделю. Архивные данные за месяц целиком и за предыдущие месяцы, начиная с января 2011 года, Вы можете получить, выбрав интересующий диапазон дат из раскрывающегося списка и нажав кнопку "Ввод!".


*Определитесь, кто Вы:
робот инопланетянин человек

Внимание! Время в таблицах - всемирное. Для получения местного времени необходимо прибавить поправку, которая равна 1 ч.

Смотрите также архив погоды в соседних городах и на ближайших метеорологических станциях:

Погода в Либревиле (Габон) (148 км)
Погода в Ламбарене (Габон) (167 км)
Погода в Муиле (Габон) (284 км)
Погода в Бате (Экваториальная Гвинея) (313 км)
Погода в Чибанге (Габон) (348 км)
Погода в Оеме (Габон) (403 км)
Погода в Битаме (Габон) (433 км)
Погода в Ластурвиле (Габон) (442 км)
Погода в Макоку (Габон) (480 км)
Погода в Малабо (Экваториальная Гвинея) (496 км)

Пояснения к столбцам:

Ветер - указаны скорость ветра в м/с - средняя за 10 мин, порывы в срок и между сроками (в фигурных скобках) и направление, откуда дует ветер: С - северный, СВ - северо-восточный, В - восточный, ЮВ - юго-восточный, Ю - южный, ЮЗ - юго-западный, З - западный, СЗ - северо-западный.
Видимость - горизонтальная дальность видимости в метрах или километрах. При видимости от 1 до 10 км при отсутствии осадков обычно наблюдается дымка, при ухудшении видимости до 1 км и менее - туман. В сухую погоду видимость может ухудшаться дымом, пылью или мглою.
Явления - указаны атмосферные явления, наблюдавшиеся в срок или в последний час перед сроком; фигурными скобками обозначены явления, наблюдавшиеся между сроками (за 1-3 часа до срока); квадратными скобками обозначены град или гололедные отложения с указанием их диаметра в мм.
Облачность - указаны через наклонную черту общая и нижняя облачность в баллах и высота нижней границы облаков в метрах; квадратными скобками обозначены формы облаков: Ci - перистые, Cs - перисто-слоистые, Cc - перисто-кучевые, Ac - высококучевые, As - высокослоистые, Sc - слоисто-кучевые, Ns - слоисто-дождевые, Cu - кучевые, Cb - кучево-дождевые. Подробнее классификацию облаков см. в Атласе облаков (PDF).
T - Температура воздуха - температура, измеренная на высоте 2 м над землей.
Td - Температура точки росы - температура, при понижении до которой содержащийся в воздухе водяной пар достигнет насыщения.
f - Относительная влажность воздуха - влажноcть воздуха, измеренная на высоте 2 м над землей.
Te - Эффективная температура - температура, которую ощущает одетый по сезону человек в тени. Характеристика душности погоды. При расчете учитывается влияние влажности воздуха и скорости ветра на теплоощущения человека.
Tes - Эффективная температура на солнце - температура, которую ощущает человек, с поправкой на солнечный нагрев. Характеристика знойности погоды. Зависит от высоты солнца над горизонтом, облачности и скорости ветра. Ночью, в пасмурную погоду, а также при ветре 12 м/с и более поправка равна нулю.
P - Атмосферное давление - приведенное к уровню моря атмосферное давление.
Po - Атмосферное давление - измеренное на уровне метеостанции атмосферное давление.
Tmin - Минимальная температура - минимум температуры воздуха на высоте 2 м над землей.
Tmax - Максимальная температура - максимум температуры воздуха на высоте 2 м над землей.
R - Количество осадков - Количество выпавших осадков за период времени, мм. При наведении курсора мыши на число - период времени, за который выпало указанное количество осадков.
R24 - Количество осадков - Количество выпавших осадков за 24 часа, мм.
S - Снежный покров - Высота снежного покрова, см. При наведении курсора мыши на число - состояние снежного покрова и степень покрытия местности в баллах.